Weather in Nizhnebakanskaya

Russia / Krasnodar Krai     44°49′59″N   37°40′48″E
temp.,
°C
wind,
m/s
gust,
m/s
humid.,
%
clouds,
%
prec.,
mm/h
press.,
hPa
HPBL,
m
9 may, sun
sun900:00+13sw1296100 0.6 1011158
03:00+12nw4896100 1.4 1012759
06:00+9nnw41095100 1.9 1014645
09:00+9nnw5888100 3.5 1017979
12:00+10nnw61177100 0.7 10181344
15:00+13nw79445 0.8 10201943
18:00+12nnw485127 0.0 10231861
21:00+7wnw12645 0.0 102455
10 may, mon
mon1000:00+7nw23656 0.0 102548
03:00+6nw226912 0.1 102542
06:00+6nw23730 0.2 102575
09:00+11nnw465179 0.3 10251547
12:00+12nw564196 0.1 10242136
15:00+13nw674098 0.1 10232132
18:00+11wnw4651100 0.0 10221329
21:00+9wsw2460100 0.0 1022212
11 may, tue
tue1100:00+10w5106298 0.0 1019756
03:00+10wsw71172100 0.4 10171043
06:00+10w71275100 0.5 10161402
09:00+9w71184100 1.8 10161292
12:00+10wsw81274100 0.4 10161410
15:00+8wsw5988100 1.1 1017941
18:00+9ssw51093100 2.5 1016861
21:00+9ssw71092100 4.4 1016942
12 may, wed
wed1200:00+9ssw61085100 0.4 1016819
03:00+10ssw5981100 0.7 1015579
06:00+10s477498 0.0 1016620
09:00+13sse465670 0.1 1016972
12:00+16sse34415 0.0 1015808
15:00+17s23362 0.0 1015832
18:00+17e12510 0.0 1014548
21:00+12ne22885 0.0 101421
13 may, thu
thu1300:00+11nne227913 0.0 101324
03:00+12nne227944 0.0 101222
06:00+12nne22705 0.0 101227
09:00+21ne234294 0.0 1011206
12:00+27ene232999 0.0 1011740
15:00+27sse24295 0.0 1010920
18:00+23sse11505 0.0 101157
21:00+18n01694 0.0 101111